STARLINK-35911, 68051

Orbit data source: Space-Track

STARLINK-35911, 68051 is a payload satellite owned by SpaceX/Seattle (US) in LEO that was launched on Mon, 02 Mar 2026 UTC via an FALCON 9 launch vehicle from the Air Force Eastern Test Range (AFETR). Payload-class satellites include a variety of spacecraft equipped with specific instruments for various scientific and technological missions. These include communications satellites like Starlink; space stations such as the ISS; scientific satellites like the Hubble; Earth observation satellites from companies like Planet Labs, Umbra, and HawkEye 360; GPS; miniature CubeSats for education and research; and military/defense satellites.

Loading next visibility...
Identifier
68051, 2026-041M
Orbit
LEO
Country
Flag of USUS
Related business
Manufacturer
SpaceX/Seattle
Mission
Operational Commercial Communications
Bus & Motor
STARLINK V2MO, Unknown motor
Mass
575 kg wet, ~530 kg dry
Launch date (UTC)
2026-03-02 (2 months ago)
Launch vehicle
FALCON 9
Launch site
Air Force Eastern Test Range (AFETR)
Object type
Payload
Rocket body
Debris
Shape & HBR
Box + 2 Pan, 17.7 m
Radar Cross Section
36.964 m²

Expand to show TLE details & history
Last TLE update: 15 hours ago

TLE from 15 hours ago
0 STARLINK-35911
1 68051U 26041M   26118.89136956  .00026887  00000-0  91646-3 0  9998
2 68051  53.1602 176.7404 0001383  89.9189 270.1970 15.30205521  9073
Epoch: 2026-04-28T21:23Z
TLE epoch observation values (Epoch: 2026-04-28T21:23:34.329Z)
Latitude
-0.00007°
Longitude
-1.01286°
Altitude
476.095 km
Speed
7.629 km/s
True Right ascension
11h 46m 57s
True Declination
0° 00' 00"
Sunlit
Object was in full shadow at epoch
Visualization orbit readout
Latitude
Unknown
Longitude
Unknown
Altitude
Unknown
Speed
Unknown
Apparent Right ascension
Unknown
Apparent Declination
Unknown
Sunlit
N/A
Visualization observer readout
Local Sidereal Time
19:26:02
Azimuth
Unknown
Elevation
Unknown
Doppler factor
Unknown
Orbital elements
Apogee altitude
476.403 km
Perigee altitude
474.507 km
Semi-major axis
6,853.592 km
Eccentricity
0.00014
Inclination
53.1602°
RAAN
176.7404°
Arg. of periapsis
89.9189°
True anomaly
270.18115°
Mean anomaly
270.197°
Eccentric anomaly
270.18908°
Mean motion
3.8253 °/min
Orbital period
94.11 mins
BSTAR
0.00091646
Loading maneuver chart data...
Computing Atmospheric mass density...
Loading historical data...
Loading historical data...
Loading historical data...
Loading historical data...
Loading historical data...
Loading historical data...
Loading historical data...

Documentation

Showing up to 5 results
|